Stations météo

Publicité
Toulouse/Blagnac, France (7630): Température de l'air & dewpoint: 14.04.2019 14:00:00 - 20.04.2019 14:00:00 (CEST)Toulouse/Blagnac, France (7630): Température de l'air 5cm: 14.04.2019 14:00:00 - 20.04.2019 14:00:00 (CEST)Toulouse/Blagnac, France (7630): Température de l'air -20cm & Température de l'air -100cm: 14.04.2019 14:00:00 - 20.04.2019 14:00:00 (CEST)Toulouse/Blagnac, France (7630): Vitesse du vent & gusts: 14.04.2019 14:00:00 - 20.04.2019 14:00:00 (CEST)Toulouse/Blagnac, France (7630): Direction du vent: 14.04.2019 14:00:00 - 20.04.2019 14:00:00 (CEST)Toulouse/Blagnac, France (7630): reduced air pressure: 14.04.2019 14:00:00 - 20.04.2019 14:00:00 (CEST)Toulouse/Blagnac, France (7630): visibility: 14.04.2019 14:00:00 - 20.04.2019 14:00:00 (CEST)Toulouse/Blagnac, France (7630): Ensoleillement: 14.04.2019 14:00:00 - 20.04.2019 14:00:00 (CEST)Toulouse/Blagnac, France (7630): Quantités de précipitations: 14.04.2019 14:00:00 - 20.04.2019 14:00:00 (CEST)
Date & Time tt [°C] td [°C] tt 5cm [°C] tt -20cm [°C] tt -100cm [°C] ff [km/h] ff [knt] fx [km/h] fx [knt] dd ppp [hPa] vv [km] sd [min] rr [mm]
20.04.2019 14:00:00 21,4 4,9 26,1 12,5 12,4 37 20 69 38 ESE 1021,9 21 60 0,0
20.04.2019 13:00:00 20,8 5,2 25,6 12,3 12,3 28 15 51 27 ESE 1022,3 17 60 0,0
20.04.2019 12:00:00 19,8 5,8 22,9 12,2 12,3 27 14 57 31 SE 1022,5 19 60 0,0
20.04.2019 11:00:00 18,7 4,5 22,1 12,2 12,3 34 18 53 29 ESE 1022,9 23 60 0,0
20.04.2019 10:00:00 16,6 6,4 17,5 12,3 12,3 9 5 16 8 E 1023,3 43 60 0,0
20.04.2019 09:00:00 13,5 4,6 10,9 12,3 12,3 8 4 14 7 E 1023,8 41 60 0,0
20.04.2019 08:00:00 10,4 3,9 5,2 12,4 12,3 9 5 16 9 NE 1023,9 32 21 0,0
20.04.2019 07:00:00 9,2 3,4 4,2 12,6 12,3 5 3 10 6 NNE 1023,5 28 0 0,0
20.04.2019 06:00:00 9,1 3,5 3,5 12,7 12,3 5 3 8 4 NNW 1023,5 34 0 0,0
20.04.2019 05:00:00 10,6 3,4 5,6 12,8 12,3 5 3 11 6 NNE 1023,7 34 0 0,0
20.04.2019 04:00:00 11,4 3,4 6,8 12,8 12,3 6 3 16 8 NE 1023,8 35 0 0,0
20.04.2019 03:00:00 12,0 3,5 8,4 13,0 12,3 9 5 14 7 NE 1024,0 35 0 0,0
20.04.2019 02:00:00 13,1 3,5 9,2 13,0 12,3 8 5 16 9 E 1024,4 36 0 0,0
20.04.2019 01:00:00 13,4 3,7 9,9 13,2 12,3 9 5 17 9 E 1024,5 35 0 0,0
20.04.2019 00:00:00 13,8 3,8 10,7 13,2 12,3 8 4 19 10 E 1024,7 34 0 0,0
19.04.2019 23:00:00 14,7 2,9 12,4 13,3 12,3 12 7 23 13 ENE 1024,8 41 0 0,0
19.04.2019 22:00:00 16,2 1,9 13,7 13,3 12,3 13 7 34 18 ENE 1024,3 42 0 0,0
19.04.2019 21:00:00 17,1 1,9 14,9 13,3 12,3 19 10 46 25 E 1023,7 44 20 0,0
19.04.2019 20:00:00 18,1 1,6 16,9 13,3 12,3 26 14 55 30 E 1023,1 30 20 0,0
19.04.2019 19:00:00 19,5 2,4 20,0 13,1 12,3 35 19 69 38 ESE 1022,7 23 60 0,0
19.04.2019 18:00:00 20,2 4,2 22,2 13,0 12,3 36 19 76 41 ESE 1022,4 13 58 0,0
19.04.2019 17:00:00 21,1 5,4 22,5 12,9 12,3 31 17 76 41 ESE 1022,4 11 54 0,0
19.04.2019 16:00:00 20,4 5,2 23,3 12,8 12,3 45 24 77 41 ESE 1022,1 14 57 0,0
19.04.2019 15:00:00 20,2 4,6 20,5 12,7 12,3 41 22 80 43 ESE 1022,1 20 2 0,0
19.04.2019 14:00:00 19,5 5,9 19,8 12,5 12,2 42 23 78 42 E 1022,0 25 0 0,0
19.04.2019 13:00:00 19,2 5,3 20,8 12,5 12,3 45 24 81 44 ESE 1022,1 18 28 0,0
19.04.2019 12:00:00 19,0 5,8 19,6 12,4 12,3 46 25 85 46 ESE 1021,6 23 38 0,0
19.04.2019 11:00:00 18,1 5,6 19,3 12,4 12,2 34 19 77 42 ESE 1021,0 29 43 0,0
19.04.2019 10:00:00 17,0 6,8 15,5 12,4 12,2 36 19 81 44 ESE 1020,3 37 29 0,0
19.04.2019 09:00:00 15,7 5,6 14,4 12,4 12,2 38 20 68 37 ESE 1020,0 26 0 0,0
19.04.2019 08:00:00 15,2 6,2 13,8 12,4 12,2 31 17 51 28 ESE 1019,8 38 0 0,0
19.04.2019 07:00:00 15,1 6,9 13,8 12,5 12,2 27 15 58 31 ESE 1019,0 30 0 0,0
19.04.2019 06:00:00 15,3 5,8 14,0 12,5 12,3 30 16 56 30 ESE 1018,4 33 0 0,0
19.04.2019 05:00:00 15,5 4,8 14,0 12,5 12,2 30 16 51 28 ESE 1018,1 37 0 0,0
19.04.2019 04:00:00 15,5 5,1 14,1 12,6 12,2 28 15 76 41 SE 1018,0 36 0 0,0
19.04.2019 03:00:00 15,6 5,5 13,9 12,7 12,2 43 23 80 43 ESE 1017,0 35 0 0,0
19.04.2019 02:00:00 15,3 4,9 13,7 12,7 12,2 31 17 62 33 ESE 1016,8 38 0 0,0
19.04.2019 01:00:00 15,2 4,5 13,6 12,8 12,2 31 17 59 32 ESE 1017,1 36 0 0,0
19.04.2019 00:00:00 15,2 5,1 13,9 12,9 12,2 34 18 59 32 ESE 1017,4 38 0 0,0
18.04.2019 23:00:00 16,1 4,2 14,5 12,9 12,2 26 14 49 26 ESE 1016,9 47 0 0,0
18.04.2019 22:00:00 16,6 2,9 14,8 12,9 12,2 32 17 57 31 ESE 1016,6 53 0 0,0
18.04.2019 21:00:00 16,3 3,0 14,7 12,9 12,2 30 16 64 35 ESE 1016,3 55 0 0,0
18.04.2019 20:00:00 16,6 4,6 15,6 12,9 12,2 31 17 61 33 ESE 1016,3 44 0 0,0
18.04.2019 19:00:00 16,8 5,4 16,4 12,9 12,2 34 19 63 34 ESE 1016,0 35 0 0,0
18.04.2019 18:00:00 17,3 7,1 17,5 12,8 12,2 33 18 63 34 ESE 1015,8 41 0 0,0
18.04.2019 17:00:00 17,8 7,2 16,5 12,7 12,2 36 19 69 37 ESE 1015,5 43 0 0,0
18.04.2019 16:00:00 16,9 7,3 17,3 12,6 12,2 40 21 69 38 ESE 1015,8 26 3 0,0
18.04.2019 15:00:00 17,2 7,3 19,0 12,5 12,2 37 20 66 36 SE 1016,2 21 0 0,0
18.04.2019 14:00:00 16,9 7,8 18,3 12,4 12,1 43 23 90 49 SE 1016,0 21 7 0,0
18.04.2019 13:00:00 16,2 7,7 18,5 12,4 12,2 51 28 84 46 SE 1016,2 18 27 0,0
18.04.2019 12:00:00 15,9 8,1 16,1 12,4 12,2 52 28 84 45 ESE 1015,7 23 32 0,0
18.04.2019 11:00:00 14,6 8,5 14,7 12,4 12,2 44 24 73 40 ESE 1015,5 28 0 0,0
18.04.2019 10:00:00 13,8 8,4 13,3 12,4 12,2 39 21 68 37 ESE 1015,3 30 0 0,0
18.04.2019 09:00:00 13,3 8,6 12,4 12,4 12,2 32 18 68 37 ESE 1015,0 36 0 0,0
18.04.2019 08:00:00 12,7 8,8 11,5 12,5 12,2 34 18 65 35 ESE 1014,6 41 0 0,0
18.04.2019 07:00:00 12,5 8,2 11,4 12,6 12,2 36 19 67 36 SE 1013,9 45 0 0,0
18.04.2019 06:00:00 12,7 8,2 11,6 12,6 12,1 37 20 65 35 ESE 1013,9 36 0 0,0
18.04.2019 05:00:00 12,9 8,8 11,8 12,7 12,2 35 19 61 33 SE 1014,3 33 0 0,0
18.04.2019 04:00:00 13,0 9,3 12,0 12,7 12,2 27 15 50 27 SE 1015,1 30 0 0,0
18.04.2019 03:00:00 13,0 9,4 12,0 12,8 12,2 31 17 63 34 SE 1014,8 29 0 0,0
18.04.2019 02:00:00 13,0 9,4 12,0 12,8 12,1 35 19 59 32 ESE 1014,5 29 0 0,0
18.04.2019 01:00:00 13,1 9,3 11,8 12,9 12,1 33 18 61 33 ESE 1014,7 31 0 0,0
18.04.2019 00:00:00 12,7 9,0 11,5 12,9 12,1 29 16 57 31 SE 1014,9 34 0 0,0
17.04.2019 23:00:00 12,5 8,6 11,4 13,0 12,1 35 19 56 31 ESE 1015,0 38 0 0,0
17.04.2019 22:00:00 12,6 7,9 11,5 13,0 12,1 33 18 58 31 ESE 1015,1 43 0 0,0
17.04.2019 21:00:00 13,3 7,3 12,1 13,1 12,1 35 19 62 34 SE 1014,6 56 0 0,0
17.04.2019 20:00:00 14,4 7,4 13,7 13,1 12,1 37 20 62 34 ESE 1014,0 47 5 0,0
17.04.2019 19:00:00 15,5 7,8 15,6 13,0 12,1 35 19 60 32 ESE 1014,1 40 27 0,0
17.04.2019 18:00:00 16,1 8,3 16,8 12,9 12,1 27 14 55 30 ESE 1013,9 49 0 0,0
17.04.2019 17:00:00 16,5 8,9 17,4 12,8 12,1 27 14 64 35 ESE 1013,9 28 0 0,0
17.04.2019 16:00:00 16,6 9,3 18,3 12,6 12,1 27 15 58 32 ESE 1014,5 26 0 0,0
17.04.2019 15:00:00 17,2 9,4 20,4 12,4 12,1 38 21 67 36 SE 1014,6 15 50 0,0
17.04.2019 14:00:00 16,9 9,3 19,6 12,3 12,1 43 23 72 39 ESE 1015,1 15 57 0,0
17.04.2019 13:00:00 15,3 9,2 18,7 12,2 12,1 45 24 78 42 ESE 1015,7 18 49 0,0
17.04.2019 12:00:00 15,3 9,4 16,2 12,2 12,1 45 24 71 39 SE 1016,4 22 45 0,0
17.04.2019 11:00:00 13,7 9,1 13,9 12,2 12,1 34 18 74 40 SE 1016,4 27 0 0,0
17.04.2019 10:00:00 12,7 8,8 12,4 12,2 12,1 38 20 60 32 SE 1016,0 44 0 0,0
17.04.2019 09:00:00 11,7 8,4 10,6 12,3 12,0 29 16 55 30 SE 1016,3 26 0 0,0
17.04.2019 08:00:00 10,8 8,0 8,9 12,4 12,1 29 16 48 26 ESE 1016,2 36 1 0,0
17.04.2019 07:00:00 10,0 7,6 7,9 12,5 12,1 18 10 34 18 ESE 1016,2 37 0 0,0
17.04.2019 06:00:00 9,6 7,0 7,7 12,6 12,1 12 7 29 15 SE 1016,4 37 0 0,0
17.04.2019 05:00:00 10,3 7,4 8,6 12,7 12,1 15 8 29 15 ESE 1016,8 41 0 0,0
17.04.2019 04:00:00 10,6 7,8 8,2 12,7 12,1 15 8 25 13 SE 1017,3 34 0 0,0
17.04.2019 03:00:00 11,3 8,3 9,5 12,8 12,1 13 7 29 16 ESE 1018,1 38 0 0,0
17.04.2019 02:00:00 11,7 8,5 10,1 12,9 12,1 21 11 35 19 SE 1018,8 38 0 0,0
17.04.2019 01:00:00 11,9 8,9 10,1 12,9 12,1 23 12 34 18 SE 1019,3 31 0 0,0
17.04.2019 00:00:00 12,2 9,4 10,8 13,0 12,1 23 12 39 21 SE 1019,6 21 0 0,0
16.04.2019 23:00:00 12,8 9,6 10,9 13,0 12,1 20 11 31 17 SE 1019,6 31 0 0,0
16.04.2019 22:00:00 14,4 7,2 11,1 13,0 12,1 10 5 15 8 E 1019,1 58 0 0,0
16.04.2019 21:00:00 15,4 6,7 11,4 12,9 12,1 7 4 19 11 E 1018,9 58 16 0,0
16.04.2019 20:00:00 16,8 6,0 17,1 12,8 12,1 7 4 17 9 NNE 1018,8 57 60 0,0
16.04.2019 19:00:00 17,4 6,3 18,3 12,7 12,1 7 4 14 8 NNE 1018,7 54 42 0,0
16.04.2019 18:00:00 16,9 7,3 18,8 12,4 12,1 4 2 22 12 NW 1018,9 39 5 0,0
16.04.2019 17:00:00 17,2 6,7 22,2 12,3 12,1 9 5 20 11 N 1019,1 45 40 0,0
16.04.2019 16:00:00 17,4 8,8 19,7 12,0 12,1 12 7 23 13 NNW 1019,6 49 30 0,0
16.04.2019 15:00:00 16,5 8,9 17,6 11,9 12,1 10 5 27 15 NW 1020,2 19 11 0,0
16.04.2019 14:00:00 15,1 7,9 17,4 11,8 12,1 16 9 30 16 NNW 1020,6 19 15 0,0
16.04.2019 13:00:00 14,8 8,5 17,6 11,6 12,1 16 9 27 15 WNW 1020,7 26 14 0,0
16.04.2019 12:00:00 14,1 9,9 15,2 11,6 12,1 15 8 34 18 W 1020,9 32 30 0,0
16.04.2019 11:00:00 12,8 10,7 13,0 11,5 12,1 14 8 37 20 W 1020,8 44 11 0,0
16.04.2019 10:00:00 11,8 10,4 11,0 11,6 12,1 18 10 29 15 W 1020,6 20 0 0,0
16.04.2019 09:00:00 11,1 10,0 10,8 11,6 12,1 23 13 35 19 WNW 1020,2 5 0 0,0
16.04.2019 08:00:00 11,2 10,3 9,8 11,6 12,1 18 10 29 16 W 1019,3 39 0 0,0
16.04.2019 07:00:00 10,1 9,8 9,5 11,6 12,1 8 4 15 8 SSW 1018,4 12 0 0,0
16.04.2019 06:00:00 9,8 9,7 9,4 11,6 12,1 8 4 14 7 SSW 1018,1 7 0 0,2
16.04.2019 05:00:00 9,6 9,3 9,4 11,6 12,1 10 5 15 8 S 1018,0 2,2 0 0,4
16.04.2019 04:00:00 9,9 9,4 9,5 11,7 12,1 10 6 17 9 S 1018,0 3,1 0 0,6
16.04.2019 03:00:00 10,0 9,4 9,3 11,7 12,1 8 5 21 11 SSE 1018,0 4,0 0 1,0
16.04.2019 02:00:00 10,1 8,7 9,2 11,7 12,1 13 7 40 22 SSE 1018,0 11 0 1,6
16.04.2019 01:00:00 10,8 9,1 9,6 11,8 12,1 21 11 43 23 SE 1017,5 6 0 1,0
16.04.2019 00:00:00 11,5 7,6 9,4 11,8 12,1 18 10 29 16 ESE 1016,6 12 0 0,2
15.04.2019 23:00:00 11,9 6,8 10,2 11,8 12,1 13 7 34 18 SSE 1016,4 22 0 0,0
15.04.2019 22:00:00 12,7 5,6 11,9 11,8 12,1 21 11 68 37 SW 1015,8 32 0 0,0
15.04.2019 21:00:00 13,0 4,4 12,0 11,8 12,1 36 19 59 32 SE 1011,8 33 12 0,0
15.04.2019 20:00:00 13,4 2,0 12,8 11,8 12,1 30 16 55 30 SE 1011,6 33 0 0,0
15.04.2019 19:00:00 14,2 0,1 14,2 11,7 12,1 38 21 66 36 SE 1011,4 26 23 0,0
15.04.2019 18:00:00 15,6 2,0 17,9 11,6 12,0 38 21 65 35 SE 1011,3 32 32 0,0
15.04.2019 17:00:00 16,5 1,7 18,9 11,5 12,1 36 20 64 35 ESE 1011,1 27 14 0,0
15.04.2019 16:00:00 16,6 1,8 18,6 11,4 12,1 31 17 55 30 ESE 1011,6 32 6 0,0
15.04.2019 15:00:00 16,4 1,7 18,2 11,2 12,1 31 17 54 29 ESE 1012,2 26 13 0,0
15.04.2019 14:00:00 15,5 1,2 17,5 11,1 12,1 34 18 53 29 ESE 1012,9 29 3 0,0
15.04.2019 13:00:00 15,1 1,2 18,3 11,0 12,1 29 16 54 29 SE 1013,4 29 17 0,0
15.04.2019 12:00:00 14,5 2,4 17,7 10,9 12,1 30 16 47 25 SE 1014,0 28 48 0,0
15.04.2019 11:00:00 13,3 2,8 15,5 10,9 12,1 28 15 41 22 SE 1015,0 30 55 0,0
15.04.2019 10:00:00 11,5 3,5 11,3 10,9 12,1 15 8 27 15 ESE 1015,4 28 60 0,0
15.04.2019 09:00:00 9,0 2,8 6,7 11,0 12,1 16 9 29 16 ESE 1016,0 25 45 0,0
15.04.2019 08:00:00 7,1 2,6 3,1 11,1 12,1 12 7 22 12 SE 1016,4 22 19 0,0
15.04.2019 07:00:00 6,1 3,1 3,8 11,3 12,1 6 3 14 8 E 1016,7 16 0 0,0
15.04.2019 06:00:00 6,9 3,3 1,6 11,3 12,1 5 3 10 5 NE 1017,1 14 0 0,0
15.04.2019 05:00:00 6,1 3,8 1,6 11,4 12,0 4 2 8 5 SSW 1017,5 14 0 0,0
15.04.2019 04:00:00 6,8 3,6 1,3 11,6 12,1 3 2 7 4 NE 1017,7 12 0 0,0
15.04.2019 03:00:00 7,0 4,0 1,7 11,7 12,1 4 2 9 5 SE 1018,3 14 0 0,0
15.04.2019 02:00:00 7,0 3,6 2,3 11,8 12,1 6 3 9 5 S 1018,5 19 0 0,0
15.04.2019 01:00:00 7,6 3,3 3,2 11,8 12,1 6 3 11 6 S 1018,7 18 0 0,0
15.04.2019 00:00:00 9,2 2,1 4,4 11,9 12,0 4 2 10 5 W 1018,7 33 0 0,0
14.04.2019 23:00:00 10,9 2,5 7,1 12,0 12,1 8 4 17 9 WNW 1018,6 30 0 0,0
14.04.2019 22:00:00 11,1 2,4 8,4 12,0 12,1 9 5 20 11 WNW 1018,2 33 0 0,0
14.04.2019 21:00:00 12,2 2,3 9,7 12,0 12,0 11 6 21 11 WNW 1017,4 38 14 0,0
14.04.2019 20:00:00 14,4 2,3 13,6 12,0 12,1 18 10 28 15 NW 1017,1 32 21 0,0
14.04.2019 19:00:00 14,7 1,9 15,4 11,9 12,1 20 11 33 18 WNW 1017,1 27 15 0,0
14.04.2019 18:00:00 15,0 0,8 15,9 11,8 12,0 21 11 34 18 NW 1017,0 34 0 0,0
14.04.2019 17:00:00 15,2 1,7 16,7 11,7 12,0 23 12 33 18 NW 1016,9 31 0 0,0
14.04.2019 16:00:00 15,2 1,7 17,5 11,6 12,0 20 11 34 19 NW 1016,7 46 12 0,0
14.04.2019 15:00:00 15,1 1,6 17,7 11,5 12,1 19 11 33 18 NW 1016,8 33 0 0,0
14.04.2019 14:00:00 14,4 3,2 19,2 11,4 12,0 14 8 27 14 NNW 1017,0 15 0 0,0

tt = Température de l'air
td = dewpoint
tt 5cm = Température de l'air 5cm
tt -20cm = Température de l'air -20cm
tt -100cm = Température de l'air -100cm
ff = Vitesse du vent
fx = gusts
dd = Direction du vent
ppp = reduced air pressure
vv = visibility
sd = Ensoleillement
rr = Quantités de précipitations

stations d'obs. à proximité